This is the latest recevied weather packets stored in our database for station/object KK6LZB. If no packets are shown the sender has not sent any weather packets the latest 10 day(s).
| Time | Temp. | Humidity | Pressure | Rain* | Wind** | Luminosity | Snow |
|---|---|---|---|---|---|---|---|
| 1778180610 | 21.11° C | 75% | 1017.9 hPa | 0 mm | - | 716 W/m² | - |
| 1778180309 | 21.11° C | 75% | 1018.1 hPa | 0 mm | - | 709 W/m² | - |
| 1778180005 | 21.11° C | 75% | 1018.1 hPa | 0 mm | - | 707 W/m² | - |
| 1778179702 | 20.56° C | 75% | 1018.3 hPa | 0 mm | - | 700 W/m² | - |
| 1778179400 | 20.56° C | 77% | 1018.1 hPa | 0 mm | - | 697 W/m² | - |
| 1778179097 | 20° C | 79% | 1018.3 hPa | 0 mm | - | 692 W/m² | - |
| 1778178794 | 20.56° C | 76% | 1018.4 hPa | 0 mm | - | 687 W/m² | - |
| 1778178491 | 20° C | 77% | 1018.4 hPa | 0 mm | - | 678 W/m² | - |
| 1778178186 | 20.56° C | 77% | 1018.3 hPa | 0 mm | - | 673 W/m² | - |
| 1778177883 | 20.56° C | 76% | 1018.4 hPa | 0 mm | - | 664 W/m² | - |
| 1778177579 | 20.56° C | 77% | 1018.2 hPa | 0 mm | - | 658 W/m² | - |
| 1778177276 | 20.56° C | 77% | 1018.2 hPa | 0 mm | - | 650 W/m² | - |
| 1778176973 | 20.56° C | 77% | 1018.3 hPa | 0 mm | - | 645 W/m² | - |
| 1778176668 | 20.56° C | 77% | 1018.2 hPa | 0 mm | - | 636 W/m² | - |
| 1778176366 | 20.56° C | 78% | 1018.4 hPa | 0 mm | - | 626 W/m² | - |
| 1778176063 | 20° C | 78% | 1018.3 hPa | 0 mm | - | 617 W/m² | - |
| 1778175761 | 20.56° C | 77% | 1018.5 hPa | 0 mm | - | 608 W/m² | - |
| 1778175459 | 20° C | 79% | 1018.2 hPa | 0 mm | - | 594 W/m² | - |
| 1778175155 | 20° C | 77% | 1018.4 hPa | 0 mm | - | 588 W/m² | - |
| 1778174852 | 20.56° C | 77% | 1018.4 hPa | 0 mm | - | 576 W/m² | - |
| 1778174549 | 20° C | 79% | 1018.5 hPa | 0 mm | - | 567 W/m² | - |
| 1778174249 | 19.44° C | 80% | 1018.5 hPa | 0 mm | - | 556 W/m² | - |
| 1778173946 | 19.44° C | 80% | 1018.5 hPa | 0 mm | - | 541 W/m² | - |
| 1778173643 | 19.44° C | 79% | 1018.6 hPa | 0 mm | - | 528 W/m² | - |
| 1778173340 | 19.44° C | 79% | 1018.5 hPa | 0 mm | - | 517 W/m² | - |
* Rain latest hour (hover to see other rain measurements)
** Current wind speed in m/s (hover to see current wind gust speed)